User: anonymous   Login
Location: Unspecified
(0.0000°N, 0.0000°E)
Time: 08:01:24
(UTC+00:00)
Language:

ZHUHAI-1 OVS-02 - Orbit

View from above orbital plane
View from above orbital plane
View from above satellite
View from above satellite

Ground track
Ground track

The orbit data is extracted from the following two-line orbital elements,

1 43440U 18040B   21024.90383140  .00000888  00000-0  45471-4 0  9994
2 43440  97.3120  96.9014 0012067  40.8019  46.2453 15.19036187152470
Epoch (UTC): 24 January 2021 21:41:31
Eccentricity: 0.0012067
inclination: 97.3120°
perigee height: 500 km
apogee height: 517 km
right ascension of ascending node: 96.9014°
argument of perigee: 40.8019°
revolutions per day: 15.19036187
mean anomaly at epoch: 46.2453°
orbit number at epoch: 15247

The dashed part of the orbit path shows where the satellite is in the earth's shadow,  

DLR